www.pogodaiklimat.ru

Погода и климат >> Архив погоды >> Малайзия >> Мерсинг


ПОГОДА в Мерсинге

  • Прогноз погоды в Мерсинге
  • Монитор погоды в Мерсинге

АРХИВ ПОГОДЫ в Мерсинге

Время (UTC), дата Ветер
(напр.,м/с)
 
Видим.   Явления Облачность Т
(С)
Тd
(С)
f
(%)
Тe
(С)
Тes
(С)
Комфортность P
(гПа)
Po
(гПа)
Тmin
(С)
Tmax
(С)
R
(мм)
R24
(мм)
S
(см)
00 13.08 Ю 3 7000 м дымка 9/4 30 м
[Sc Ac lent Ci sp]
+24.9 +24.1 95 +34 +35 очень
душно
1010.4 1005.3 +24.5 25
06 13.08 В 5 13 км мгла 9/4 500 м
[Cb cap Ac lent Ci sp]
+31.8 +27.6 79 +51 +55 опасность
перегрева
1009.9 1004.9
12 13.08 Ю 2 н/о н/о +26.8 +25.1 90 +39 +39 очень
душно
1010.0 1004.9 +32.7 0.4
18 13.08 ЮВ 3 н/о н/о +25.8 +24.2 91 +36 +36 очень
душно
1010.9 1005.8
00 14.08 ЮЗ 2 6000 м мгла 9/4 <50 м
[Sc Ac trans Ci sp]
+24.9 +24.0 95 +34 +35 очень
душно
1011.3 1006.2 +24.4 0.4
06 14.08 В 5 12 км мгла 9/4 540 м
[Cb calv Ac trans Ci sp]
+33.1 +28.1 75 +54 +58 опасность
перегрева
1010.0 1005.0
12 14.08 Ю 2 н/о н/о +25.9 +23.8 88 +35 +35 очень
душно
1010.2 1005.1 +33.3
18 14.08 ЮЗ 2 н/о н/о +23.9 +23.0 95 +32 +32 очень
душно
1011.8 1006.7
00 15.08 ЮЗ 2 6000 м дымка 9/4 <50 м
[Sc Ac trans Ci sp]
+24.2 +23.5 96 +33 +33 очень
душно
1012.6 1007.5 +23.9
06 15.08 В 5 11 км мгла 9/4 540 м
[Cb cap Ac trans Ci sp]
+31.9 +26.9 75 +50 +54 опасность
перегрева
1010.8 1005.8
12 15.08 ЮВ 2 н/о н/о +26.9 +25.2 90 +39 +39 очень
душно
1010.0 1004.9 +32.9 23
18 15.08 ЮЗ 3 н/о н/о +24.6 +23.9 96 +34 +34 очень
душно
1010.5 1005.4
00 16.08 ЮЗ 2 7000 м дымка 9/4 30 м
[Sc Ac lent Ci sp]
+23.8 +23.3 97 +32 +32 очень
душно
1011.9 1006.8 +23.5 23
06 16.08 В 4 13 км мгла 9/4 600 м
[Cu med, cong Ac lent Ci sp]
+33.3 +27.3 71 +52 +57 опасность
перегрева
1010.4 1005.4
12 16.08 ЮВ 4 н/о н/о +28.1 +24.3 80 +39 +39 очень
душно
1009.7 1004.6 +34.0
18 16.08 ЮВ 3 н/о н/о +25.4 +23.4 89 +34 +34 очень
душно
1011.5 1006.4
00 17.08 ЮЗ 3 8000 м мгла 9/4 30 м
[Sc Ac lent Cs]
+24.0 +23.1 95 +32 +32 очень
душно
1011.7 1006.6 +23.7
06 17.08 Ю 3 9000 м в посл. час гроза {дождь} 9/5 500 м
[Cb cap Ac lent Ci sp]
+28.4 +24.6 80 +40 +46 очень
душно
1010.9 1005.8 0.2
12 17.08 ЮЗ 2 н/о н/о +25.5 +23.8 90 +35 +35 очень
душно
1010.1 1005.0 +31.6 13
18 17.08 ЮЗ 3 н/о н/о +24.5 +22.9 91 +32 +32 очень
душно
1011.1 1006.0
00 18.08 ЮЗ 3 6000 м мгла 9/4 <50 м
[Sc Ac trans Ci sp]
+24.4 +23.2 93 +33 +33 очень
душно
1012.0 1006.9 +23.9 13
06 18.08 В 6 11 км мгла 9/4 540 м
[Cb cap Ac trans Ci sp]
+32.6 +27.0 72 +50 +53 опасность
перегрева
1010.6 1005.6
12 18.08 ЮВ 4 н/о н/о +27.4 +24.4 84 +39 +39 очень
душно
1010.5 1005.4 +32.9
18 18.08 Ю 3 н/о н/о +24.8 +23.3 91 +33 +33 очень
душно
1011.9 1006.8
00 19.08 ЮЗ 2 6000 м дымка 9/4 <50 м
[Sc Ac trans Ci sp]
+23.6 +22.8 95 +31 +32 очень
душно
1012.1 1007.0 +23.1
06 19.08 В 5 13 км мгла 8/4 600 м
[Cu med, cong Ac trans Ci sp]
+33.3 +26.7 68 +50 +55 опасность
перегрева
1010.2 1005.2
12 19.08 ЮВ 4 н/о н/о +28.1 +24.9 83 +40 +40 очень
душно
1009.6 1004.5 +33.3
18 19.08 Ю 3 н/о н/о +25.3 +23.7 91 +34 +34 очень
душно
1010.1 1005.0

 

Местоположение метеостанции Мерсинг (Малайзия): широта 5.45 долгота 103.83 высота над уровнем моря 44 м.

В архиве по умолчанию представлена погода в Мерсинге за последнюю неделю. Архивные данные за месяц целиком и за предыдущие месяцы, начиная с января 2011 года, Вы можете получить, выбрав интересующий диапазон дат из раскрывающегося списка и нажав кнопку "Ввод!".


*Определитесь, кто Вы:
робот инопланетянин человек

Внимание! Время в таблицах - всемирное. Для получения местного времени необходимо прибавить поправку, которая равна 7 ч.

Смотрите также архив погоды в соседних городах и на ближайших метеорологических станциях:

Погода в Куала-Тренггану (Малайзия) (81 км)
Погода в Кота-Бхару (Малайзия) (189 км)
Погода в Куантане (Малайзия) (198 км)
Погода в Наратхивате (Таиланд) (248 км)
Погода на Нагорье Кэмерон (Малайзия) (294 км)
Погода в Яла Агромете (Таиланд) (306 км)
Погода в Ипохе (Малайзия) (318 км)
Погода в Паттани (Таиланд) (331 км)
Погода в Куала-Лумпуре (Малайзия) (362 км)
Погода в Таремпе (Индонезия) (367 км)

Пояснения к столбцам:

Ветер - указаны скорость ветра в м/с - средняя за 10 мин, порывы в срок и между сроками (в фигурных скобках) и направление, откуда дует ветер: С - северный, СВ - северо-восточный, В - восточный, ЮВ - юго-восточный, Ю - южный, ЮЗ - юго-западный, З - западный, СЗ - северо-западный.
Видимость - горизонтальная дальность видимости в метрах или километрах. При видимости от 1 до 10 км при отсутствии осадков обычно наблюдается дымка, при ухудшении видимости до 1 км и менее - туман. В сухую погоду видимость может ухудшаться дымом, пылью или мглою.
Явления - указаны атмосферные явления, наблюдавшиеся в срок или в последний час перед сроком; фигурными скобками обозначены явления, наблюдавшиеся между сроками (за 1-3 часа до срока); квадратными скобками обозначены град или гололедные отложения с указанием их диаметра в мм.
Облачность - указаны через наклонную черту общая и нижняя облачность в баллах и высота нижней границы облаков в метрах; квадратными скобками обозначены формы облаков: Ci - перистые, Cs - перисто-слоистые, Cc - перисто-кучевые, Ac - высококучевые, As - высокослоистые, Sc - слоисто-кучевые, Ns - слоисто-дождевые, Cu - кучевые, Cb - кучево-дождевые. Подробнее классификацию облаков см. в Атласе облаков (PDF).
T - Температура воздуха - температура, измеренная на высоте 2 м над землей.
Td - Температура точки росы - температура, при понижении до которой содержащийся в воздухе водяной пар достигнет насыщения.
f - Относительная влажность воздуха - влажноcть воздуха, измеренная на высоте 2 м над землей.
Te - Эффективная температура - температура, которую ощущает одетый по сезону человек в тени. Характеристика душности погоды. При расчете учитывается влияние влажности воздуха и скорости ветра на теплоощущения человека.
Tes - Эффективная температура на солнце - температура, которую ощущает человек, с поправкой на солнечный нагрев. Характеристика знойности погоды. Зависит от высоты солнца над горизонтом, облачности и скорости ветра. Ночью, в пасмурную погоду, а также при ветре 12 м/с и более поправка равна нулю.
P - Атмосферное давление - приведенное к уровню моря атмосферное давление.
Po - Атмосферное давление - измеренное на уровне метеостанции атмосферное давление.
Tmin - Минимальная температура - минимум температуры воздуха на высоте 2 м над землей.
Tmax - Максимальная температура - максимум температуры воздуха на высоте 2 м над землей.
R - Количество осадков - Количество выпавших осадков за период времени, мм. При наведении курсора мыши на число - период времени, за который выпало указанное количество осадков.
R24 - Количество осадков - Количество выпавших осадков за 24 часа, мм.
S - Снежный покров - Высота снежного покрова, см. При наведении курсора мыши на число - состояние снежного покрова и степень покрытия местности в баллах.